Retour au catalogue

CZ-6A DEB

ActifSSO
NORAD 54583·DEBRIS·🇨🇳 China

Lancé Nov 11, 2022 depuis Taiyuan Satellite Launch Center

Loading…

Prochains Passages (prochaines 24 heures)

TLE

FraisSource: Space-Track

Époque: Sep 14, 2026, 08:54 UTC

1 54583U 22151MK  26257.37146000  .00001246  00000-0  72449-3 0  9991
2 54583  98.8667 243.8449 0087101 132.1572 228.7039 14.08581582196080

Suivez CZ-6A DEB en temps réel avec AllMySat

Download on the App Store